Hourly Data Report for August 10, 2020

LYTTON RCS
BRITISH COLUMBIA
Current Station Operator: ECCC - MSC

50°13'28.000" N
121°34'55.000" W
225.00 m
1114746
71765
VLY

Download Data

Hourly Data (August 2020)
Hourly Data Report for August 10, 2020
TIME Temp Definition
°C
Dew Point Definition
°C
Rel Hum Definition
%
Wind Dir Definition
10's deg

Wind Spd Definition
km/h
Visibility Definition
km
Stn Press Definition
kPa
Hmdx Definition


Wind Chill Definition


Weather Definition


00:00 20.6 9.9 50 19 30   99.11     LegendNANA
01:00 20.1 9.7 51 20 32   99.07     LegendNANA
02:00 19.4 10.0 55 18 34   99.08     LegendNANA
03:00 18.8 10.0 57 18 33   99.09     LegendNANA
04:00 18.0 10.0 60 18 30   99.11     LegendNANA
05:00 17.7 10.1 61 17 17   99.19     LegendNANA
06:00 17.4 9.9 62 18 13   99.26     LegendNANA
07:00 17.2 10.0 63 13 9   99.27     LegendNANA
08:00 18.9 9.9 56 15 7   99.22     LegendNANA
09:00 20.6 10.1 51 14 4   99.16     LegendNANA
10:00 24.2 8.3 36 28 2   99.06 25   LegendNANA
11:00 25.5 8.1 33 23 4   98.97 26   LegendNANA
12:00 26.3 8.0 31 29 4   98.84 27   LegendNANA
13:00 28.4 8.0 28 16 4   98.69 29   LegendNANA
14:00 29.8 8.3 26 19 20   98.56 30   LegendNANA
15:00 30.5 7.9 24 19 22   98.45 31   LegendNANA
16:00 29.1 7.8 26 19 24   98.37 29   LegendNANA
17:00 28.5 8.0 27 18 24   98.31 29   LegendNANA
18:00 27.4 8.5 30 19 26   98.29 28   LegendNANA
19:00 26.0 9.2 35 19 18   98.30 27   LegendNANA
20:00 24.5 10.3 41 20 21   98.35 26   LegendNANA
21:00 23.3 11.1 46 19 24   98.41 25   LegendNANA
22:00 22.1 11.6 52 19 21   98.42     LegendNANA
23:00 21.2 11.7 55 19 21   98.44     LegendNANA

Notes on Data Quality.

Legend

  • E = Estimated
  • M = Missing
  • NA = Not Available*
  • [empty] = Indicates an unobserved value
Date modified: